CZ-4 DEB, 27687

Orbit data source: Space-Track

CZ-4 DEB, 27687 is space debris in SSO originally from a launch on Thu, 14 Oct 1999 UTC launched from the Taiyaun Space Center, China (TSC). Debris objects in space refer to the collection of defunct objects orbiting the Earth. Examples of debris include non-operational satellites, rocket bodies, and fragments generated from explosions, collisions, or faulty payload assembly.

Loading next visibility...
Identifier
27687, 1999-057MT
Orbit
SSO
Country
Flag of CNCN / PRC
Related business
Manufacturer
Unknown
Mission
Spacecraft
Bus & Motor
Unknown
Mass
Unknown
Launch date (UTC)
1999-10-14 (26 years ago)
Launch vehicle
Unknown
Launch site
Taiyaun Space Center, China (TSC)
Object type
Payload
Rocket body
Debris
Shape & HBR
Unknown shape, 0.1 m
Radar Cross Section
Small (<0.1 m²)

Expand to show TLE details & history
Last TLE update: 1 day ago

TLE from 1 day ago
0 CZ-4 DEB
1 27687U 99057MT  25304.35846966  .00000259  00000-0  96491-4 0  9990
2 27687  98.7837 337.8863 0089317  96.4731 264.6634 14.38053373220541
Epoch: 2025-10-31T08:36Z
TLE epoch observation values (Epoch: 2025-10-31T08:36:11.778Z)
Latitude
-0.00005°
Longitude
168.93319°
Altitude
774.374 km
Speed
7.463 km/s
True Right ascension
22h 31m 32s
True Declination
0° 00' 00"
Sunlit
Object was in full shadow at epoch
Visualization orbit readout
Latitude
Unknown
Longitude
Unknown
Altitude
Unknown
Speed
Unknown
Apparent Right ascension
Unknown
Apparent Declination
Unknown
Sunlit
N/A
Visualization observer readout
Local Sidereal Time
14:34:03
Azimuth
Unknown
Elevation
Unknown
Doppler factor
Unknown
Orbital elements
Apogee altitude
825.849 km
Perigee altitude
698.301 km
Semi-major axis
7,140.212 km
Eccentricity
0.00893
Inclination
98.7837°
RAAN
337.8863°
Arg. of periapsis
96.4731°
True anomaly
263.64545°
Mean anomaly
264.6634°
Eccentric anomaly
264.15431°
Mean motion
3.5973 °/min
Orbital period
100.08 mins
BSTAR
0.000096491
Loading maneuver chart data...
Computing Atmospheric mass density...
Loading historical data...
Loading historical data...
Loading historical data...
Loading historical data...
Loading historical data...
Loading historical data...
Loading historical data...

Documentation

Showing up to 5 results
|